AA5QJ Weather Reports


time (UTC)temp
C
wind
direction
speed
KPH
gust
KPH
rain 1hr
cm
rain 24hr
cm
rain mn
cm
humidity
%
barometer
mb
20260506204255 23 107 9.7 19.3 0.00 0.00 0.00 33 1014.6
20260506203754 23 87 4.8 19.3 0.00 0.00 0.00 33 1014.6
20260506203255 -42 107 4.8 16.1 0.00 0.00 0.00 33 1014.6
20260506202755 23 127 6.4 16.1 0.00 0.00 0.00 33 1014.6
20260506202255 23 221 3.2 12.9 0.00 0.00 0.00 33 1014.6
20260506201754 -48 197 0.0 9.7 0.00 0.00 0.00 34 1014.6
20260506201254 -48 197 0.0 16.1 0.00 0.00 0.00 34 1014.6
20260506200756 -3 114 9.7 16.1 0.00 0.00 0.00 34 1014.9
20260506200255 -5 105 9.7 16.1 0.00 0.00 0.00 35 1014.9
20260506195755 1 60 6.4 16.1 0.00 0.00 0.00 35 1014.9
20260506195255 8 75 8.0 14.5 0.00 0.00 0.00 34 1014.9
20260506194754 -4 269 1.6 14.5 0.00 0.00 0.00 36 1014.9
20260506194256 -4 34 11.3 14.5 0.00 0.00 0.00 35 1014.9
20260506193756 0 60 8.0 14.5 0.00 0.00 0.00 35 1014.9
20260506193255 8 284 0.0 8.0 0.00 0.00 0.00 35 1015.3
20260506192754 7 332 0.0 17.7 0.00 0.00 0.00 36 1014.9
20260506192254 4 156 4.8 17.7 0.00 0.00 0.00 36 1015.3
20260506191756 5 103 6.4 16.1 0.00 0.00 0.00 36 1015.3
20260506191256 2 325 4.8 16.1 0.00 0.00 0.00 36 1015.3
20260506190755 8 94 6.4 17.7 0.00 0.00 0.00 36 1015.3
20260506190255 4 141 9.7 17.7 0.00 0.00 0.00 37 1015.3
20260506185754 4 97 0.0 17.7 0.00 0.00 0.00 36 1015.3
20260506185254 3 108 8.0 17.7 0.00 0.00 0.00 36 1015.3
20260506184755 0 37 8.0 14.5 0.00 0.00 0.00 36 1015.3
20260506184255 6 87 11.3 14.5 0.00 0.00 0.00 36 1015.3
20260506183755 2 187 1.6 16.1 0.00 0.00 0.00 37 1015.3
20260506183254 1 176 3.2 16.1 0.00 0.00 0.00 37 1015.3
20260506182754 4 143 3.2 11.3 0.00 0.00 0.00 37 1015.6
20260506182254 5 138 0.0 12.9 0.00 0.00 0.00 38 1015.3
20260506181756 7 83 8.0 14.5 0.00 0.00 0.00 38 1015.3
20260506181255 7 131 4.8 14.5 0.00 0.00 0.00 37 1015.6
20260506180755 8 63 6.4 14.5 0.00 0.00 0.00 38 1015.6
20260506180255 8 179 9.7 14.5 0.00 0.00 0.00 38 1015.6
20260506175755 8 190 3.2 12.9 0.00 0.00 0.00 40 1015.6
20260506175255 8 94 6.4 16.1 0.00 0.00 0.00 40 1015.6
20260506174754 8 90 8.0 16.1 0.00 0.00 0.00 39 1015.6
20260506174254 8 169 6.4 16.1 0.00 0.00 0.00 40 1015.6
20260506173756 8 96 8.0 17.7 0.00 0.00 0.00 40 1015.6
20260506173255 8 169 8.0 17.7 0.00 0.00 0.00 41 1015.6
20260506172754 8 127 8.0 11.3 0.00 0.00 0.00 40 1015.6
20260506172254 8 153 3.2 12.9 0.00 0.00 0.00 40 1015.6
20260506171756 8 108 6.4 12.9 0.00 0.00 0.00 41 1015.6
20260506171256 8 15 8.0 12.9 0.00 0.00 0.00 41 1015.6
20260506170756 8 10 4.8 14.5 0.00 0.00 0.00 41 1015.3
20260506170255 8 156 3.2 16.1 0.00 0.00 0.00 42 1015.3
20260506165755 8 104 3.2 16.1 0.00 0.00 0.00 43 1015.3
20260506165255 7 120 9.7 14.5 0.00 0.00 0.00 42 1015.3
20260506164755 7 87 8.0 14.5 0.00 0.00 0.00 42 1015.3
20260506164254 7 93 6.4 14.5 0.00 0.00 0.00 43 1015.3
20260506163756 7 124 4.8 9.7 0.00 0.00 0.00 43 1015.3
20260506163255 7 100 3.2 14.5 0.00 0.00 0.00 43 1015.3
20260506162755 7 58 6.4 14.5 0.00 0.00 0.00 44 1015.3
20260506162254 7 111 1.6 14.5 0.00 0.00 0.00 44 1015.3
20260506161756 6 117 4.8 11.3 0.00 0.00 0.00 44 1015.3
20260506161256 -3 135 3.2 9.7 0.00 0.00 0.00 45 1015.3
20260506160755 4 52 6.4 8.0 0.00 0.00 0.00 45 1015.3
20260506160254 -7 44 0.0 11.3 0.00 0.00 0.00 46 1015.3
20260506155754 6 107 0.0 11.3 0.00 0.00 0.00 46 1015.3
20260506155254 -8 107 3.2 11.3 0.00 0.00 0.00 46 1015.3
20260506154755 8 79 1.6 11.3 0.00 0.00 0.00 47 1015.3
20260506154255 11 1 1.6 11.3 0.00 0.00 0.00 46 1015.3
20260506153755 12 46 0.0 8.0 0.00 0.00 0.00 47 1015.3
20260506153255 12 338 0.0 9.7 0.00 0.00 0.00 47 1015.3
20260506152755 12 38 4.8 9.7 0.00 0.00 0.00 47 1015.3
20260506152254 12 58 0.0 9.7 0.00 0.00 0.00 48 1015.3
20260506151755 12 48 0.0 9.7 0.00 0.00 0.00 48 1015.3
20260506151255 13 63 3.2 9.7 0.00 0.00 0.00 47 1014.9
20260506150755 13 34 8.0 11.3 0.00 0.00 0.00 47 1014.9
20260506150302 13 51 6.4 11.3 0.00 0.00 0.00 47 1014.9
20260506145754 13 6 1.6 9.7 0.00 0.00 0.00 47 1014.9
20260506145254 13 352 0.0 11.3 0.00 0.00 0.00 47 1014.9
20260506144756 12 6 1.6 11.3 0.00 0.00 0.00 47 1014.9
20260506144255 12 14 8.0 9.7 0.00 0.00 0.00 46 1014.9
20260506143755 12 354 1.6 6.4 0.00 0.00 0.00 47 1014.9
20260506143255 12 39 1.6 6.4 0.00 0.00 0.00 47 1014.6
20260506142754 12 93 0.0 6.4 0.00 0.00 0.00 48 1014.6
20260506142255 12 58 0.0 3.2 0.00 0.00 0.00 48 1014.6
20260506141755 12 58 0.0 4.8 0.00 0.00 0.00 49 1014.6
20260506141255 12 35 0.0 8.0 0.00 0.00 0.00 49 1014.6
20260506140754 12 46 0.0 9.7 0.00 0.00 0.00 49 1014.6
20260506140254 12 84 1.6 9.7 0.00 0.00 0.00 49 1014.6
20260506135756 12 65 4.8 8.0 0.00 0.00 0.00 50 1014.3
20260506135255 12 314 0.0 0.0 0.00 0.00 0.00 52 1014.3
20260506134755 11 314 0.0 0.0 0.00 0.00 0.00 54 1014.3
20260506134255 11 314 0.0 0.0 0.00 0.00 0.00 56 1013.9
20260506133755 11 314 0.0 0.0 0.00 0.00 0.00 57 1013.9
20260506133254 11 314 0.0 0.0 0.00 0.00 0.00 58 1013.9
20260506132754 11 314 0.0 0.0 0.00 0.00 0.00 58 1013.9
20260506132254 11 314 0.0 0.0 0.00 0.00 0.00 59 1013.6
20260506131754 10 314 0.0 0.0 0.00 0.00 0.00 60 1013.6
20260506131256 10 314 0.0 0.0 0.00 0.00 0.00 60 1013.6
20260506130755 10 314 0.0 0.0 0.00 0.00 0.00 60 1013.6
20260506130255 10 314 0.0 0.0 0.00 0.00 0.00 60 1013.6
20260506125755 10 314 0.0 0.0 0.00 0.00 0.00 60 1013.6
20260506125255 8 314 0.0 0.0 0.00 0.00 0.00 59 1013.6
20260506124754 -16 314 0.0 0.0 0.00 0.00 0.00 59 1013.2
20260506124254 0 314 0.0 0.0 0.00 0.00 0.00 58 1013.2
20260506123754 3 314 0.0 0.0 0.00 0.00 0.00 58 1013.2
20260506123255 4 314 0.0 0.0 0.00 0.00 0.00 58 1012.9
20260506122755 4 314 0.0 0.0 0.00 0.00 0.00 57 1012.9
20260506122255 -11 314 0.0 0.0 0.00 0.00 0.00 57 1012.9
20260506121755 -9 314 0.0 0.0 0.00 0.00 0.00 57 1012.9
20260506121255 -6 314 0.0 0.0 0.00 0.00 0.00 58 1012.9
20260506120754 -5 314 0.0 0.0 0.00 0.00 0.00 58 1012.9
20260506120254 -3 314 0.0 0.0 0.00 0.00 0.00 59 1012.9
20260506115754 4 314 0.0 0.0 0.00 0.00 0.00 58 1012.9
20260506115254 3 314 0.0 0.0 0.00 0.00 0.00 58 1012.9
20260506114756 5 314 0.0 0.0 0.00 0.00 0.00 58 1012.9
20260506114256 3 314 0.0 0.0 0.00 0.00 0.00 58 1012.9
20260506113755 3 314 0.0 0.0 0.00 0.00 0.00 58 1012.6
20260506113255 3 314 0.0 0.0 0.00 0.00 0.00 57 1012.6
20260506112755 -3 314 0.0 0.0 0.00 0.00 0.00 58 1012.6
20260506112255 -3 314 0.0 0.0 0.00 0.00 0.00 58 1012.6
20260506111754 -6 314 0.0 0.0 0.00 0.00 0.00 58 1012.6
20260506111254 -2 314 0.0 0.0 0.00 0.00 0.00 59 1012.6
20260506110754 0 314 0.0 0.0 0.00 0.00 0.00 59 1012.6
20260506110255 1 314 0.0 8.0 0.00 0.00 0.00 58 1012.6
20260506105755 3 314 0.0 8.0 0.00 0.00 0.00 58 1012.6
20260506105255 0 336 0.0 8.0 0.00 0.00 0.00 58 1012.6
20260506104754 -3 6 0.0 3.2 0.00 0.00 0.00 58 1012.2
20260506104254 -2 293 0.0 0.0 0.00 0.00 0.00 56 1012.2
20260506103754 3 293 0.0 0.0 0.00 0.00 0.00 56 1012.2
20260506103256 4 293 0.0 0.0 0.00 0.00 0.00 56 1011.9
20260506102756 -10 293 0.0 0.0 0.00 0.00 0.00 56 1011.9
20260506102256 -7 293 0.0 0.0 0.00 0.00 0.00 56 1011.9
20260506101755 -6 293 0.0 0.0 0.00 0.00 0.00 55 1011.9
20260506101255 0 293 0.0 0.0 0.00 0.00 0.00 55 1011.9
20260506100755 0 293 0.0 0.0 0.00 0.00 0.00 55 1011.9
20260506100255 -4 293 0.0 0.0 0.00 0.00 0.00 54 1011.9
20260506095755 2 293 0.0 0.0 0.00 0.00 0.00 54 1011.9
20260506095254 0 293 0.0 0.0 0.00 0.00 0.00 54 1011.6
20260506094756 0 293 0.0 0.0 0.00 0.00 0.00 53 1011.6
20260506094256 3 293 0.0 0.0 0.00 0.00 0.00 53 1011.6
20260506093755 1 293 0.0 0.0 0.00 0.00 0.00 53 1011.6
20260506093255 0 293 0.0 0.0 0.00 0.00 0.00 53 1011.6
20260506092754 2 293 0.0 0.0 0.00 0.00 0.00 53 1011.6
20260506092254 0 293 0.0 0.0 0.00 0.00 0.00 52 1011.6
20260506091754 1 293 0.0 0.0 0.00 0.00 0.00 52 1011.6
20260506091254 0 293 0.0 0.0 0.00 0.00 0.00 52 1011.6
20260506090756 2 293 0.0 0.0 0.00 0.00 0.00 52 1011.6
20260506090255 0 293 0.0 0.0 0.00 0.00 0.00 51 1011.2
20260506085755 2 293 0.0 0.0 0.00 0.00 0.00 52 1011.2
20260506085255 -1 293 0.0 0.0 0.00 0.00 0.00 51 1011.2
20260506084755 1 293 0.0 0.0 0.00 0.00 0.00 51 1011.2
20260506084254 2 293 0.0 0.0 0.00 0.00 0.00 51 1011.2
20260506083755 2 293 0.0 0.0 0.00 0.00 0.00 50 1011.2
20260506083254 3 293 0.0 0.0 0.00 0.00 0.00 50 1011.2
20260506082754 5 293 0.0 1.6 0.00 0.00 0.00 49 1011.2
20260506082254 4 293 0.0 4.8 0.00 0.00 0.00 49 1011.2
20260506081756 5 285 1.6 4.8 0.00 0.00 0.00 48 1011.2
20260506081256 5 283 0.0 8.0 0.00 0.00 0.00 48 1011.2
20260506080755 3 262 0.0 11.3 0.00 0.00 0.00 48 1011.2
20260506080255 6 267 6.4 11.3 0.00 0.00 0.00 48 1011.2
20260506073255 5 221 0.0 0.0 0.00 0.00 0.00 48 1011.2
20260506072755 4 221 0.0 4.8 0.00 0.00 0.00 48 1011.2
20260506072255 2 221 0.0 4.8 0.00 0.00 0.00 48 1011.2
20260506071755 5 290 0.0 0.0 0.00 0.00 0.00 47 1011.2
20260506071254 3 290 0.0 0.0 0.00 0.00 0.00 46 1011.2
20260506070754 1 290 0.0 0.0 0.00 0.00 0.00 45 1011.2
20260506070254 2 290 0.0 0.0 0.00 0.00 0.00 45 1011.2
20260506062254 7 290 0.0 3.2 0.00 0.00 0.00 46 1010.9
20260506061754 6 290 0.0 4.8 0.00 0.00 0.00 46 1010.9
20260506061254 3 291 3.2 4.8 0.00 0.00 0.00 46 1010.9
20260506060756 3 277 0.0 0.0 0.00 0.00 0.00 45 1010.5
20260506060255 1 277 0.0 0.0 0.00 0.00 0.00 45 1010.5
20260506051255 17 305 6.4 11.3 0.00 0.00 0.00 44 1010.2
20260506050754 17 293 4.8 11.3 0.00 0.00 0.00 44 1010.2
20260506050254 17 271 6.4 12.9 0.00 0.00 0.00 43 1009.9
20260506044755 17 290 9.7 16.1 0.00 0.00 0.00 43 1009.5
20260506044255 16 280 9.7 20.9 0.00 0.00 0.00 43 1009.5
20260506043755 17 245 9.7 20.9 0.00 0.00 0.00 43 1009.5
20260506043254 18 284 8.0 16.1 0.00 0.00 0.00 43 1009.5
20260506042756 18 276 8.0 17.7 0.00 0.00 0.00 43 1009.5
20260506042256 18 288 6.4 17.7 0.00 0.00 0.00 43 1009.5
20260506041755 18 291 9.7 16.1 0.00 0.00 0.00 43 1009.2
20260506041255 18 298 8.0 16.1 0.00 0.00 0.00 43 1009.2
20260506040755 18 271 9.7 16.1 0.00 0.00 0.00 43 1009.2
20260506040254 18 297 6.4 16.1 0.00 0.00 0.00 43 1009.2
20260506035754 18 266 8.0 16.1 0.00 0.00 0.00 43 1009.2
20260506035254 18 284 8.0 14.5 0.00 0.00 0.00 43 1009.2
20260506034754 18 316 4.8 16.1 0.00 0.00 0.00 42 1009.2
20260506034256 18 176 9.7 16.1 0.00 0.00 0.00 42 1008.8
20260506033755 18 259 8.0 16.1 0.00 0.00 0.00 42 1008.5
20260506033255 18 231 6.4 16.1 0.00 0.00 0.00 42 1008.8
20260506032755 18 252 8.0 14.5 0.00 0.00 0.00 42 1008.5
20260506032255 18 271 6.4 14.5 0.00 0.00 0.00 42 1008.5
20260506031755 19 242 8.0 16.1 0.00 0.00 0.00 42 1008.5
20260506031255 19 266 8.0 19.3 0.00 0.00 0.00 41 1008.5
20260506030754 19 243 8.0 19.3 0.00 0.00 0.00 41 1008.5
20260506030255 19 276 8.0 16.1 0.00 0.00 0.00 41 1008.2
20260506025755 19 256 6.4 16.1 0.00 0.00 0.00 41 1008.2
20260506025254 19 257 8.0 16.1 0.00 0.00 0.00 40 1008.2
20260506024754 20 259 4.8 16.1 0.00 0.00 0.00 40 1008.2
20260506024254 20 246 9.7 12.9 0.00 0.00 0.00 39 1008.2
20260506023754 20 131 1.6 14.5 0.00 0.00 0.00 37 1007.8
20260506023256 20 245 4.8 14.5 0.00 0.00 0.00 37 1007.8
20260506022755 20 233 8.0 14.5 0.00 0.00 0.00 37 1007.8
20260506022255 20 205 8.0 12.9 0.00 0.00 0.00 37 1007.8
20260506021755 20 249 8.0 12.9 0.00 0.00 0.00 37 1007.8
20260506021255 20 252 6.4 14.5 0.00 0.00 0.00 37 1007.5
20260506020755 20 264 8.0 14.5 0.00 0.00 0.00 36 1007.5
20260506020254 20 163 4.8 16.1 0.00 0.00 0.00 36 1007.5
20260506015754 20 152 6.4 16.1 0.00 0.00 0.00 35 1007.5
20260506015256 20 208 6.4 11.3 0.00 0.00 0.00 35 1007.5
20260506014756 20 201 4.8 12.9 0.00 0.00 0.00 35 1007.5
20260506014255 20 173 4.8 14.5 0.00 0.00 0.00 34 1007.5
20260506013755 20 145 8.0 14.5 0.00 0.00 0.00 34 1007.5
20260506013254 21 183 4.8 16.1 0.00 0.00 0.00 33 1007.5
20260506012754 21 256 3.2 16.1 0.00 0.00 0.00 33 1007.5
20260506012256 21 240 4.8 12.9 0.00 0.00 0.00 33 1007.5
20260506011755 21 165 6.4 12.9 0.00 0.00 0.00 33 1007.5
20260506011255 21 236 3.2 11.3 0.00 0.00 0.00 33 1007.5
20260506010755 21 181 4.8 11.3 0.00 0.00 0.00 32 1007.5
20260506010254 21 122 0.0 14.5 0.00 0.00 0.00 31 1007.2
20260506005756 21 169 8.0 14.5 0.00 0.00 0.00 32 1007.2
20260506005255 21 194 4.8 12.9 0.00 0.00 0.00 31 1007.2
20260506004755 21 225 4.8 11.3 0.00 0.00 0.00 31 1007.2
20260506004255 21 233 8.0 11.3 0.00 0.00 0.00 31 1007.2
20260506003756 21 208 1.6 11.3 0.00 0.00 0.00 32 1007.2
20260506003256 21 72 4.8 8.0 0.00 0.00 0.00 31 1007.2
20260506002755 21 222 4.8 8.0 0.00 0.00 0.00 31 1007.2
20260506002255 21 260 0.0 6.4 0.00 0.00 0.00 31 1007.2
20260506001754 21 77 1.6 12.9 0.00 0.00 0.00 31 1007.2
20260506001254 21 158 4.8 17.7 0.00 0.00 0.00 32 1007.5
20260506000754 21 243 11.3 17.7 0.00 0.00 0.00 31 1007.2
20260506000256 21 276 11.3 14.5 0.00 0.00 0.00 32 1007.2
20260505235756 21 158 4.8 11.3 0.00 0.00 0.00 31 1007.2
20260505235255 21 152 1.6 11.3 0.00 0.00 0.00 31 1007.2
20260505234755 21 295 6.4 12.9 0.00 0.00 0.00 32 1007.2
20260505234255 21 293 6.4 12.9 0.00 0.00 0.00 32 1007.2
20260505233754 21 304 6.4 22.5 0.00 0.00 0.00 33 1007.2
20260505233256 20 263 9.7 22.5 0.00 0.00 0.00 33 1007.2
20260505232755 20 13 4.8 17.7 0.00 0.00 0.00 33 1007.2
20260505232255 20 115 9.7 17.7 0.00 0.00 0.00 33 1007.2
20260505231755 20 82 0.0 9.7 0.00 0.00 0.00 34 1007.2
20260505231254 20 146 0.0 9.7 0.00 0.00 0.00 33 1007.5
20260505230754 20 145 3.2 14.5 0.00 0.00 0.00 34 1007.5
20260505230256 20 136 9.7 16.1 0.00 0.00 0.00 33 1007.5
20260505225755 20 117 8.0 16.1 0.00 0.00 0.00 34 1007.5
20260505225255 20 127 6.4 16.1 0.00 0.00 0.00 34 1007.5
20260505224755 20 266 4.8 16.1 0.00 0.00 0.00 33 1007.8
20260505224254 20 129 0.0 14.5 0.00 0.00 0.00 33 1007.8
20260505223755 20 141 4.8 20.9 0.00 0.00 0.00 33 1007.8
20260505223254 21 176 9.7 20.9 0.00 0.00 0.00 32 1007.8
20260505222756 21 138 4.8 16.1 0.00 0.00 0.00 33 1007.8
20260505222256 21 318 8.0 14.5 0.00 0.00 0.00 33 1007.8
20260505221756 21 262 6.4 14.5 0.00 0.00 0.00 33 1008.2
20260505221255 21 253 8.0 14.5 0.00 0.00 0.00 33 1008.2
20260505220754 21 293 3.2 12.9 0.00 0.00 0.00 34 1008.2
20260505220255 21 181 6.4 14.5 0.00 0.00 0.00 34 1008.2
20260505215755 21 141 6.4 14.5 0.00 0.00 0.00 34 1008.2
20260505215255 20 259 0.0 16.1 0.00 0.00 0.00 34 1008.2
20260505214755 20 269 6.4 16.1 0.00 0.00 0.00 35 1008.5
20260505214255 -48 135 8.0 16.1 0.00 0.00 0.00 35 1008.5
20260505213755 -6 91 8.0 11.3 0.00 0.00 0.00 35 1008.5
20260505213255 -6 80 1.6 12.9 0.00 0.00 0.00 36 1008.5
20260505212755 3 211 3.2 16.1 0.00 0.00 0.00 36 1008.5
20260505212255 -2 75 9.7 16.1 0.00 0.00 0.00 36 1008.5
20260505211754 -6 89 8.0 22.5 0.00 0.00 0.00 37 1008.5
20260505211254 -3 41 11.3 22.5 0.00 0.00 0.00 36 1008.8
20260505210754 -3 113 9.7 16.1 0.00 0.00 0.00 36 1008.8
20260505210255 1 203 11.3 17.7 0.00 0.00 0.00 36 1008.8
20260505205755 0 250 8.0 17.7 0.00 0.00 0.00 36 1008.8
20260505205254 5 249 1.6 16.1 0.00 0.00 0.00 37 1008.8
20260505204754 2 215 4.8 16.1 0.00 0.00 0.00 38 1008.8